Comodoro Rivadavia, Argentina

7:34 AM America en Octubre 18, 2017 (GMT +0000)
GEN. Enrique Mosconi International

Tiempo Historia de SAVC - Mayo, 2017

Change the Weather History Date:

Viernes, Mayo 19, 2017

  Actual Average Record
Temperature  
Temperatura media 46 ° F -  
Temperatura máxima 57 ° F 54 ° F 68 ° F (2015)
Temperatura mínima 35 ° F 39 ° F 32 ° F (2003)
Degree Days  
Grados día de calefacción 19    
Moisture  
Punto de rocío 32 ° F    
Average Humidity 52    
Maximum Humidity 81    
Minimum Humidity 24    
Precipitación  
Precipitación 0.00 pul 0.04 pul - ()
Presión al nivel del mar  
Presión al nivel del mar 29.96 pul    
Viento  
Velocidad del viento 7 mph ()    
Velocidad máxima del viento 15 mph    
Max Gust Speed -    
Visibilidad 19.0 Millas    
Eventos      
Averages and records for this station are not official NWS values.
T = Trace of Precipitation, MM = Missing Value Source: Averaged Metar Reports

Daily Weather History Graph

Daily Weather History Graph

Search for Another Location

Airport or City:

Trip Planner

Search our weather history database for the weather conditions in past years. The results will help you decide how hot, cold, wet, or windy it might be!

Date:

Astronomía

May. 19, 2017 Salida Puesta
Hora real 8:48 AM -03 6:04 PM -03
Crepúsculo civil 8:15 AM -03 6:37 PM -03
Crepúsculo náutico 7:38 AM -03 7:13 PM -03
Crepúsculo astronómico 7:03 AM -03 7:49 PM -03
Luna 1:02 AM -03 (5/19) 2:56 PM -03 (5/19)
Horas de luz 10h 21m
Horas de luz
9h 16m
Cuarto menguante, 44% of the Moon is Illuminated
May 19
Cuarto menguante
May 25
Nueva
Jun 1
Cuarto creciente
Jun 9
Luna llena
Jun 17
Cuarto menguante

Hourly Weather History & Observations

Hora (-03) Temp. Vientos helados Punto de rocío Humedad Presión Visibilidad Wind Dir Velocidad del viento Velocidad de ráfagas Precip Eventos Condiciones
12:00 AM 43 ° F - 33 ° F 59% 30.08 pul 19 mi Oeste 9.2 mph - -  
12:00 AM 42.8 ° F 37.5 ° F 33.8 ° F 70% 30.09 pul - Oeste 9.2 mph - N/A   Despejado
1:00 AM 41.0 ° F 38.0 ° F 33.8 ° F 76% 30.09 pul - NO 4.6 mph - N/A   Despejado
2:00 AM 37.4 ° F - 30.2 ° F 75% 30.09 pul - Sin viento Sin viento - N/A   Despejado
3:00 AM 37 ° F - 32 ° F 75% 30.06 pul 19 mi Oeste 4.6 mph - -  
3:00 AM 37.4 ° F 33.8 ° F 32.0 ° F 81% 30.09 pul - Oeste 4.6 mph - N/A   Despejado
4:00 AM 41.0 ° F 39.0 ° F 33.8 ° F 76% 30.06 pul - Oeste 3.5 mph - N/A   Despejado
5:00 AM 41.0 ° F 37.1 ° F 32.0 ° F 70% 30.04 pul - Oeste 5.8 mph - N/A   Despejado
6:00 AM 41 ° F - 31 ° F 57% 30.00 pul 19 mi NNO 3.5 mph - -  
6:00 AM 41.0 ° F 39.0 ° F 30.2 ° F 65% 30.04 pul - NNO 3.5 mph - N/A   Despejado
7:00 AM 42.8 ° F 40.1 ° F 30.2 ° F 61% 30.01 pul - Oeste 4.6 mph - N/A   Despejado
8:00 AM 41.0 ° F 38.0 ° F 30.2 ° F 65% 30.01 pul - NO 4.6 mph - N/A   Despejado
9:00 AM 43 ° F - 27 ° F 40% 29.99 pul 19 mi ONO 12.7 mph - -   Despejado
9:00 AM 42.8 ° F 36.2 ° F 26.6 ° F 53% 30.01 pul - ONO 12.7 mph - N/A   Despejado
10:00 AM 44.6 ° F 43.1 ° F 30.2 ° F 57% 30.01 pul - ONO 3.5 mph - N/A   Despejado
11:00 AM 50.0 ° F - 32.0 ° F 50% 29.98 pul - ONO 8.1 mph - N/A   Despejado
12:00 PM 52 ° F - 28 ° F 27% 29.94 pul 19 mi ONO 12.7 mph - -   Despejado
12:00 PM 51.8 ° F - 28.4 ° F 41% 29.98 pul - ONO 12.7 mph - N/A   Despejado
1:00 PM 55.4 ° F - 30.2 ° F 38% 29.95 pul - ONO 13.8 mph - N/A   Despejado
2:00 PM 57.2 ° F - 32.0 ° F 38% 29.95 pul - ONO 11.5 mph - N/A   Despejado
3:00 PM 57 ° F - 30 ° F 24% 29.88 pul 19 mi NO 10.4 mph - -   Despejado
3:00 PM 57.2 ° F - 30.2 ° F 36% 29.92 pul - NO 10.4 mph - N/A   Despejado
4:00 PM 57.2 ° F - 30.2 ° F 36% 29.89 pul - Oeste 11.5 mph - N/A   Despejado
5:00 PM 55.4 ° F - 30.2 ° F 38% 29.89 pul - NO 11.5 mph - N/A   Despejado
6:00 PM 53 ° F - 34 ° F 35% 29.86 pul 19 mi ONO 8.1 mph - -   Despejado
6:00 PM 51.8 ° F - 33.8 ° F 50% 29.89 pul - ONO 8.1 mph - N/A   Despejado
7:00 PM 51.8 ° F - 33.8 ° F 50% 29.89 pul - ONO 6.9 mph - N/A   Despejado
8:00 PM 51.8 ° F - 33.8 ° F 50% 29.86 pul - NO 6.9 mph - N/A   Despejado
9:00 PM 53 ° F - 34 ° F 37% 29.82 pul 19 mi ONO 8.1 mph - -  
9:00 PM 53.6 ° F - 33.8 ° F 47% 29.83 pul - ONO 8.1 mph - N/A   Despejado
10:00 PM 53.6 ° F - 33.8 ° F 47% 29.83 pul - ONO 5.8 mph - N/A   Despejado
11:00 PM 53.6 ° F - 35.6 ° F 51% 29.83 pul - ONO 15.0 mph - N/A   Despejado